User: anonymous   Login
Location: Unspecified
(0.0000°N, 0.0000°E)
Time: 01:32:48
(UTC+00:00)
Language:

UNAMSat - Orbit

View from above orbital plane
View from above orbital plane
View from above satellite
View from above satellite

Ground track
Ground track

The orbit data is extracted from the following two-line orbital elements,

1 24305U 96052B   17117.84093420 +.00000053 +00000-0 +40159-4 0  9994
2 24305 082.9400 029.8123 0029990 180.3989 179.7148 13.73782641034603
Epoch (UTC): 27 April 2017 20:10:56
Eccentricity: 0.0029990
inclination: 82.9400°
perigee height: 964 km
apogee height: 1008 km
right ascension of ascending node: 29.8123°
argument of perigee: 180.3989°
revolutions per day: 13.73782641
mean anomaly at epoch: 179.7148°
orbit number at epoch: 3460

The dashed part of the orbit path shows where the satellite is in the earth's shadow,  

DLR